When you browse on this site, cookies collect data to enhance your experience and personalize the content and advertising you see.
Visit our Privacy Policy to learn more. By continuing to use the site, you agree to this use of cookies and data.
  • In Hungary
  • List of Countries
  • For 7 days
  • Water Temperature
  • Weather Map
  • News
  • Weather Widgets
  • user-avatar
    Login

    Hourly Weather Elat

    Today, 21 August, Wednesday

    Time Temperature Precipitation Wind Pressure Humidity
    00:00 +27°C° 0 mm 3 mps 754 mmHg 67%
    01:00 +27°C° 0 mm 3 mps 754 mmHg 69%
    02:00 +26°C° 0 mm 2 mps 754 mmHg 71%
    03:00 +25°C° 0 mm 2 mps 754 mmHg 72%
    04:00 +25°C° 0 mm 2 mps 754 mmHg 73%
    05:00 +24°C° 0 mm 2 mps 754 mmHg 75%
    06:00 +26°C° 0 mm 3 mps 754 mmHg 65%
    07:00 +28°C° 0 mm 3 mps 754 mmHg 56%
    08:00 +30°C° 0 mm 3 mps 754 mmHg 47%
    09:00 +34°C° 0 mm 4 mps 754 mmHg 39%
    10:00 +36°C° 0 mm 4 mps 754 mmHg 31%
    11:00 +39°C° 0 mm 5 mps 753 mmHg 23%
    12:00 +40°C° 0 mm 5 mps 753 mmHg 21%
    13:00 +42°C° 0 mm 6 mps 752 mmHg 19%
    14:00 +44°C° 0 mm 6 mps 752 mmHg 17%
    15:00 +42°C° 0 mm 6 mps 751 mmHg 18%
    16:00 +42°C° 0 mm 6 mps 751 mmHg 18%
    17:00 +41°C° 0 mm 6 mps 751 mmHg 19%
    18:00 +39°C° 0 mm 6 mps 751 mmHg 27%
    19:00 +35°C° 0 mm 6 mps 752 mmHg 35%
    20:00 +32°C° 0 mm 5 mps 752 mmHg 43%
    21:00 +30°C° 0 mm 5 mps 752 mmHg 48%
    22:00 +29°C° 0 mm 4 mps 753 mmHg 53%
    23:00 +28°C° 0 mm 3 mps 753 mmHg 57%

    Tomorrow, 22 August, Thursday

    Time Temperature Precipitation Wind Pressure Humidity
    00:00 +28°C° 0 mm 3 mps 753 mmHg 59%
    01:00 +27°C° 0 mm 3 mps 752 mmHg 61%
    02:00 +27°C° 0 mm 3 mps 752 mmHg 62%
    03:00 +26°C° 0 mm 3 mps 752 mmHg 63%
    04:00 +26°C° 0 mm 3 mps 752 mmHg 64%
    05:00 +26°C° 0 mm 3 mps 753 mmHg 65%
    06:00 +28°C° 0 mm 4 mps 753 mmHg 57%
    07:00 +30°C° 0 mm 4 mps 753 mmHg 49%
    08:00 +33°C° 0 mm 5 mps 753 mmHg 41%
    09:00 +35°C° 0 mm 5 mps 752 mmHg 35%
    10:00 +37°C° 0 mm 5 mps 752 mmHg 29%
    11:00 +41°C° 0 mm 5 mps 752 mmHg 23%
    12:00 +42°C° 0 mm 6 mps 751 mmHg 21%
    13:00 +44°C° 0 mm 6 mps 750 mmHg 19%
    14:00 +46°C° 0 mm 7 mps 750 mmHg 17%
    15:00 +45°C° 0 mm 7 mps 749 mmHg 17%
    16:00 +44°C° 0 mm 7 mps 749 mmHg 17%
    17:00 +43°C° 0 mm 8 mps 749 mmHg 18%
    18:00 +39°C° 0 mm 7 mps 749 mmHg 30%
    19:00 +35°C° 0 mm 6 mps 750 mmHg 42%
    20:00 +32°C° 0 mm 5 mps 751 mmHg 55%
    21:00 +30°C° 0 mm 5 mps 751 mmHg 60%
    22:00 +29°C° 0 mm 4 mps 751 mmHg 65%
    23:00 +28°C° 0 mm 3 mps 752 mmHg 70%

    Day after tomorrow, 23 August, Friday

    Time Temperature Precipitation Wind Pressure Humidity
    00:00 +28°C° 0 mm 3 mps 751 mmHg 72%
    01:00 +27°C° 0 mm 3 mps 751 mmHg 74%
    02:00 +27°C° 0 mm 3 mps 751 mmHg 75%
    03:00 +26°C° 0 mm 3 mps 751 mmHg 74%
    04:00 +26°C° 0 mm 3 mps 751 mmHg 74%
    05:00 +26°C° 0 mm 3 mps 751 mmHg 73%
    06:00 +28°C° 0 mm 3 mps 751 mmHg 64%
    07:00 +30°C° 0 mm 4 mps 751 mmHg 55%
    08:00 +33°C° 0 mm 4 mps 751 mmHg 46%
    09:00 +35°C° 0 mm 4 mps 750 mmHg 39%
    10:00 +38°C° 0 mm 4 mps 750 mmHg 33%
    11:00 +41°C° 0 mm 4 mps 750 mmHg 26%
    12:00 +42°C° 0 mm 3 mps 749 mmHg 23%
    13:00 +44°C° 0 mm 3 mps 749 mmHg 21%
    14:00 +45°C° 0 mm 3 mps 748 mmHg 18%
    15:00 +44°C° 0 mm 3 mps 748 mmHg 20%
    16:00 +44°C° 0 mm 4 mps 748 mmHg 21%
    17:00 +43°C° 0 mm 4 mps 748 mmHg 22%
    18:00 +40°C° 0 mm 4 mps 749 mmHg 35%
    19:00 +36°C° 0 mm 4 mps 750 mmHg 48%
    20:00 +32°C° 0 mm 4 mps 751 mmHg 61%
    21:00 +30°C° 0 mm 3 mps 751 mmHg 66%
    22:00 +29°C° 0 mm 3 mps 751 mmHg 71%
    23:00 +28°C° 0 mm 2 mps 751 mmHg 76%

    24 August, Saturday

    Time Temperature Precipitation Wind Pressure Humidity
    00:00 +28°C° 0 mm 2 mps 751 mmHg 77%
    01:00 +27°C° 0 mm 2 mps 751 mmHg 78%
    02:00 +27°C° 0 mm 2 mps 751 mmHg 80%
    03:00 +27°C° 0 mm 2 mps 751 mmHg 81%
    04:00 +26°C° 0 mm 2 mps 751 mmHg 83%
    05:00 +26°C° 0 mm 2 mps 751 mmHg 84%
    06:00 +28°C° 0 mm 2 mps 751 mmHg 75%
    07:00 +29°C° 0 mm 2 mps 752 mmHg 67%
    08:00 +31°C° 0 mm 2 mps 752 mmHg 58%
    09:00 +35°C° 0 mm 2 mps 752 mmHg 49%
    10:00 +37°C° 0 mm 2 mps 752 mmHg 41%
    11:00 +39°C° 0 mm 2 mps 752 mmHg 32%
    12:00 +40°C° 0 mm 2 mps 751 mmHg 28%
    13:00 +42°C° 0 mm 2 mps 751 mmHg 24%
    14:00 +43°C° 0 mm 2 mps 750 mmHg 20%
    15:00 +43°C° 0 mm 2 mps 750 mmHg 21%
    16:00 +42°C° 0 mm 2 mps 750 mmHg 22%
    17:00 +43°C° 0 mm 3 mps 750 mmHg 23%
    18:00 +39°C° 0 mm 3 mps 751 mmHg 30%
    19:00 +37°C° 0 mm 3 mps 751 mmHg 37%
    20:00 +34°C° 0 mm 3 mps 752 mmHg 44%
    21:00 +34°C° 0 mm 3 mps 752 mmHg 47%
    22:00 +33°C° 0 mm 3 mps 752 mmHg 50%
    23:00 +31°C° 0 mm 2 mps 752 mmHg 54%

    25 August, Sunday

    Time Temperature Precipitation Wind Pressure Humidity
    00:00 +31°C° 0 mm 2 mps 752 mmHg 54%
    01:00 +30°C° 0 mm 2 mps 752 mmHg 55%
    02:00 +30°C° 0 mm 2 mps 752 mmHg 56%
    03:00 +29°C° 0 mm 2 mps 752 mmHg 56%
    04:00 +29°C° 0 mm 2 mps 752 mmHg 57%
    05:00 +29°C° 0 mm 2 mps 752 mmHg 58%
    06:00 +31°C° 0 mm 2 mps 752 mmHg 51%
    07:00 +34°C° 0 mm 2 mps 753 mmHg 45%
    08:00 +35°C° 0 mm 3 mps 753 mmHg 38%
    09:00 +37°C° 0 mm 3 mps 752 mmHg 34%
    10:00 +39°C° 0 mm 3 mps 752 mmHg 29%
    11:00 +42°C° 0 mm 3 mps 752 mmHg 25%
    12:00 +43°C° 0 mm 3 mps 752 mmHg 22%
    13:00 +44°C° 0 mm 3 mps 751 mmHg 20%
    14:00 +46°C° 0 mm 3 mps 751 mmHg 18%
    15:00 +45°C° 0 mm 4 mps 750 mmHg 18%
    16:00 +45°C° 0 mm 4 mps 750 mmHg 19%
    17:00 +46°C° 0 mm 5 mps 750 mmHg 19%
    18:00 +42°C° 0 mm 5 mps 751 mmHg 25%
    19:00 +39°C° 0 mm 5 mps 751 mmHg 32%
    20:00 +35°C° 0 mm 5 mps 752 mmHg 38%
    21:00 +34°C° 0 mm 4 mps 752 mmHg 40%
    22:00 +33°C° 0 mm 4 mps 752 mmHg 42%
    23:00 +33°C° 0 mm 3 mps 753 mmHg 44%

    26 August, Monday

    Time Temperature Precipitation Wind Pressure Humidity
    00:00 +31°C° 0 mm 3 mps 752 mmHg 44%
    01:00 +31°C° 0 mm 3 mps 752 mmHg 44%
    02:00 +30°C° 0 mm 2 mps 752 mmHg 44%
    03:00 +30°C° 0 mm 2 mps 752 mmHg 45%
    04:00 +29°C° 0 mm 2 mps 753 mmHg 46%
    05:00 +29°C° 0 mm 3 mps 753 mmHg 47%
    06:00 +31°C° 0 mm 3 mps 753 mmHg 42%
    07:00 +34°C° 0 mm 3 mps 753 mmHg 36%
    08:00 +36°C° 0 mm 3 mps 753 mmHg 31%
    09:00 +38°C° 0 mm 3 mps 753 mmHg 27%
    10:00 +41°C° 0 mm 4 mps 753 mmHg 23%
    11:00 +43°C° 0 mm 4 mps 753 mmHg 19%
    12:00 +44°C° 0 mm 4 mps 752 mmHg 18%
    13:00 +45°C° 0 mm 4 mps 751 mmHg 16%
    14:00 +48°C° 0 mm 5 mps 751 mmHg 15%
    15:00 +47°C° 0 mm 5 mps 751 mmHg 15%
    16:00 +46°C° 0 mm 6 mps 751 mmHg 15%
    17:00 +46°C° 0 mm 7 mps 750 mmHg 15%
    18:00 +42°C° 0 mm 6 mps 751 mmHg 21%
    19:00 +39°C° 0 mm 5 mps 752 mmHg 27%
    20:00 +35°C° 0 mm 5 mps 753 mmHg 34%
    21:00 +34°C° 0 mm 4 mps 753 mmHg 36%
    22:00 +33°C° 0 mm 4 mps 753 mmHg 39%
    23:00 +31°C° 0 mm 3 mps 753 mmHg 42%
    Show more